GW6799 Weather Reports


time (UTC)temp
F
wind
direction
speed
knots
gust
knots
rain 1hr
in
rain 24hr
in
rain mn
in
humidity
%
barometer
mb
20260506051009 57 327 4.3 8.7 0.00 0.00 0.00 79 1010.8
20260506050504 57 30 5.2 8.7 0.00 0.00 0.00 79 1010.8
20260506045003 57 9 6.1 12.2 0.00 0.00 0.00 79 1010.7
20260506044518 58 9 2.6 9.6 0.00 0.00 0.00 79 1010.6
20260506044008 58 316 2.6 10.4 0.00 0.00 0.00 80 1010.5
20260506043503 58 342 2.6 10.4 0.00 0.00 0.00 80 1010.4
20260506043017 58 26 6.1 10.4 0.00 0.00 0.00 80 1010.6
20260506042504 59 360 2.6 9.6 0.00 0.00 0.00 80 1010.5
20260506042008 59 337 6.1 9.6 0.00 0.00 0.00 80 1010.3
20260506041517 59 11 5.2 9.6 0.00 0.00 0.00 80 1010.4
20260506041003 59 9 4.3 11.3 0.00 0.00 0.00 80 1010.3
20260506040503 60 350 5.2 11.3 0.00 0.00 0.00 80 1010.2
20260506040024 60 352 5.2 11.3 0.00 0.00 0.00 80 1010.2
20260506035504 60 11 3.5 7.8 0.00 0.00 0.00 80 1010.1
20260506035004 61 16 2.6 7.8 0.00 0.00 0.00 80 1010.0
20260506034518 61 350 3.5 7.8 0.00 0.00 0.00 81 1010.2
20260506034007 61 327 3.5 7.8 0.00 0.00 0.00 81 1010.2
20260506033502 61 320 3.5 8.7 0.00 0.00 0.00 81 1010.0
20260506033020 61 333 4.3 8.7 0.00 0.00 0.00 81 1010.0
20260506032507 61 343 5.2 10.4 0.00 0.00 0.00 81 1009.9
20260506032004 61 338 5.2 10.4 0.00 0.00 0.00 80 1009.8
20260506031527 62 360 6.1 9.6 0.00 0.00 0.00 80 1009.6
20260506031006 62 352 2.6 7.0 0.00 0.00 0.00 80 1009.5
20260506030504 62 335 3.5 9.6 0.00 0.00 0.00 80 1009.4
20260506030019 62 333 4.3 9.6 0.00 0.00 0.00 80 1009.5
20260506025508 62 352 6.1 9.6 0.00 0.00 0.00 80 1009.3
20260506025006 62 315 4.3 10.4 0.00 0.00 0.00 80 1009.3
20260506024533 63 352 5.2 11.3 0.00 0.00 0.00 79 1009.1
20260506024007 63 14 6.1 11.3 0.00 0.00 0.00 79 1009.1
20260506023503 64 337 4.3 10.4 0.00 0.00 0.00 79 1008.9
20260506023020 64 5 5.2 10.4 0.00 0.00 0.00 79 1008.6
20260506022506 64 339 5.2 9.6 0.00 0.00 0.00 79 1008.5
20260506022008 65 350 3.5 8.7 0.00 0.00 0.00 79 1008.3
20260506021522 65 15 4.3 9.6 0.00 0.00 0.00 79 1008.5
20260506021004 66 352 5.2 11.3 0.00 0.00 0.00 78 1008.3
20260506020505 66 317 6.1 10.4 0.00 0.00 0.00 78 1008.3
20260506020020 66 334 5.2 9.6 0.00 0.00 0.00 78 1008.1
20260506015511 66 10 3.5 9.6 0.00 0.00 0.00 78 1007.8
20260506015004 67 352 3.5 7.8 0.00 0.00 0.00 78 1007.7
20260506014510 67 5 2.6 7.8 0.00 0.00 0.00 78 1007.7
20260506014004 67 349 2.6 7.8 0.00 0.00 0.00 78 1007.8
20260506013504 67 336 3.5 7.8 0.00 0.00 0.00 77 1007.6
20260506013004 67 360 3.5 9.6 0.00 0.00 0.00 77 1007.5
20260506012509 67 334 4.3 9.6 0.00 0.00 0.00 76 1007.4
20260506012003 68 360 5.2 9.6 0.00 0.00 0.00 76 1007.2
20260506011503 68 327 3.5 12.2 0.00 0.00 0.00 76 1007.4
20260506011008 69 17 7.8 12.2 0.00 0.00 0.00 75 1007.1
20260506010506 69 9 5.2 8.7 0.00 0.00 0.00 75 1007.0
20260506010003 70 16 2.6 7.8 0.00 0.00 0.00 75 1006.7
20260506005507 71 327 2.6 7.8 0.00 0.00 0.00 75 1006.9
20260506005002 71 5 2.6 8.7 0.00 0.00 0.00 75 1006.6
20260506004523 71 15 4.3 9.6 0.00 0.00 0.00 75 1006.5
20260506004006 72 352 3.5 9.6 0.00 0.00 0.00 74 1006.4
20260506003503 72 5 3.5 8.7 0.00 0.00 0.00 74 1006.6
20260506003005 72 352 3.5 8.7 0.00 0.00 0.00 73 1006.6
20260506002509 73 15 1.7 7.0 0.00 0.00 0.00 73 1006.7
20260506002002 73 337 3.5 6.1 0.00 0.00 0.00 72 1006.4
20260506001524 73 330 1.7 9.6 0.00 0.00 0.00 72 1006.4
20260506001007 73 324 5.2 13.0 0.00 0.00 0.00 72 1006.2
20260506000511 73 352 5.2 13.0 0.00 0.00 0.00 71 1006.3
20260506000004 74 332 6.1 13.9 0.00 0.00 0.00 70 1006.5
20260505235507 74 342 8.7 13.9 0.00 0.00 0.00 70 1006.6
20260505235008 74 340 5.2 12.2 0.00 0.00 0.00 70 1006.2
20260505234537 75 322 7.0 12.2 0.00 0.00 0.00 69 1005.8
20260505234008 75 324 5.2 13.0 0.00 0.00 0.00 70 1005.8
20260505233503 75 352 5.2 13.0 0.00 0.00 0.00 69 1005.9
20260505233027 75 341 7.0 14.8 0.00 0.00 0.00 67 1006.0
20260505232511 76 348 8.7 14.8 0.00 0.00 0.00 67 1006.1
20260505232009 77 326 7.8 13.9 0.00 0.00 0.00 65 1005.9
20260505231507 78 302 5.2 13.0 0.00 0.00 0.00 64 1005.7
20260505231007 79 345 7.0 12.2 0.00 0.00 0.00 63 1005.6
20260505230502 79 328 5.2 11.3 0.00 0.00 0.00 62 1005.4
20260505230009 80 24 7.0 13.0 0.00 0.00 0.00 60 1005.2
20260505225513 81 322 6.1 13.0 0.00 0.00 0.00 58 1005.2
20260505225003 82 334 3.5 9.6 0.00 0.00 0.00 57 1005.2
20260505224535 82 292 2.6 7.0 0.00 0.00 0.00 56 1005.1
20260505224006 82 294 2.6 7.0 0.00 0.00 0.00 55 1005.1
20260505223506 83 313 3.5 7.0 0.00 0.00 0.00 53 1005.0
20260505223027 84 333 2.6 6.1 0.00 0.00 0.00 53 1004.9
20260505222508 84 291 2.6 7.0 0.00 0.00 0.00 54 1004.8
20260505222005 85 315 2.6 8.7 0.00 0.00 0.00 54 1004.7
20260505221503 85 293 1.7 9.6 0.00 0.00 0.00 55 1004.7
20260505221007 85 282 4.3 9.6 0.00 0.00 0.00 53 1004.6
20260505220502 85 343 4.3 9.6 0.00 0.00 0.00 55 1004.6
20260505220004 85 312 5.2 11.3 0.00 0.00 0.00 55 1004.7
20260505215506 86 229 5.2 11.3 0.00 0.00 0.00 58 1004.4
20260505215006 86 229 4.3 11.3 0.00 0.00 0.00 57 1004.4
20260505214509 86 230 5.2 11.3 0.00 0.00 0.00 57 1004.6
20260505214007 86 248 7.0 13.0 0.00 0.00 0.00 58 1004.7
20260505213506 86 203 7.0 13.0 0.00 0.00 0.00 58 1004.7
20260505213007 87 215 7.0 14.8 0.00 0.00 0.00 59 1004.6
20260505212506 86 221 8.7 13.9 0.00 0.00 0.00 59 1004.6
20260505212011 86 251 6.1 11.3 0.00 0.00 0.00 58 1004.8
20260505211504 86 213 4.3 14.8 0.00 0.00 0.00 59 1004.9
20260505211007 86 192 7.0 14.8 0.00 0.00 0.00 58 1005.0
20260505210506 86 226 6.1 11.3 0.00 0.00 0.00 59 1005.0
20260505210006 86 236 7.0 11.3 0.00 0.00 0.00 60 1005.2
20260505205506 85 224 5.2 11.3 0.00 0.00 0.00 60 1005.0
20260505205008 84 192 8.7 12.2 0.00 0.00 0.00 59 1005.0
20260505204508 85 228 7.0 13.0 0.00 0.00 0.00 60 1005.1
20260505204007 85 235 7.8 13.0 0.00 0.00 0.00 59 1005.2
20260505203504 85 198 7.8 13.0 0.00 0.00 0.00 58 1005.3
20260505203009 85 225 7.0 14.8 0.00 0.00 0.00 59 1005.4
20260505202507 85 217 8.7 14.8 0.00 0.00 0.00 60 1005.5
20260505202007 84 229 7.0 13.0 0.00 0.00 0.00 62 1005.4
20260505201507 84 205 7.0 13.9 0.00 0.00 0.00 61 1005.5
20260505201007 84 229 7.0 14.8 0.00 0.00 0.00 61 1005.4
20260505200503 84 206 8.7 14.8 0.00 0.00 0.00 61 1005.3
20260505200009 84 219 7.8 13.0 0.00 0.00 0.00 61 1005.4
20260505195506 84 205 7.8 13.0 0.00 0.00 0.00 60 1005.6
20260505195006 85 191 7.0 13.0 0.00 0.00 0.00 60 1005.4
20260505194508 85 240 7.8 13.0 0.00 0.00 0.00 59 1005.5
20260505194007 85 279 7.0 13.9 0.00 0.00 0.00 60 1005.5
20260505193505 84 223 8.7 15.6 0.00 0.00 0.00 59 1005.5
20260505193009 85 219 9.6 18.2 0.00 0.00 0.00 60 1005.4
20260505192508 85 217 9.6 18.2 0.00 0.00 0.00 57 1005.4
20260505192005 84 234 7.8 16.5 0.00 0.00 0.00 60 1005.4
20260505191509 84 214 8.7 13.0 0.00 0.00 0.00 65 1005.4
20260505191006 84 204 7.8 13.9 0.00 0.00 0.00 64 1005.3
20260505190505 83 163 7.0 13.9 0.00 0.00 0.00 63 1005.3
20260505190028 83 211 7.0 13.9 0.00 0.00 0.00 65 1005.4
20260505185508 83 219 5.2 13.9 0.00 0.00 0.00 66 1005.3
20260505185009 82 360 8.7 13.9 0.00 0.00 0.00 66 1005.4
20260505184531 82 238 7.8 13.9 0.00 0.00 0.00 65 1005.5
20260505184008 82 360 8.7 14.8 0.00 0.00 0.00 67 1005.5
20260505183503 82 216 10.4 14.8 0.00 0.00 0.00 67 1005.5
20260505183030 82 214 7.0 12.2 0.00 0.00 0.00 67 1005.5
20260505182507 82 185 7.8 15.6 0.00 0.00 0.00 68 1005.5
20260505182006 81 196 7.8 15.6 0.00 0.00 0.00 69 1005.5
20260505181534 81 221 7.8 15.6 0.00 0.00 0.00 69 1005.6
20260505181008 81 197 8.7 17.4 0.00 0.00 0.00 69 1005.5
20260505180511 81 192 9.6 17.4 0.00 0.00 0.00 68 1005.6
20260505180038 82 360 10.4 15.6 0.00 0.00 0.00 67 1005.5
20260505175506 82 202 9.6 15.6 0.00 0.00 0.00 68 1005.5
20260505175006 81 182 10.4 19.1 0.00 0.00 0.00 68 1005.4
20260505174526 81 213 9.6 19.1 0.00 0.00 0.00 69 1005.5
20260505174010 81 169 9.6 18.2 0.00 0.00 0.00 69 1005.5
20260505173510 80 213 8.7 15.6 0.00 0.00 0.00 70 1005.4
20260505173030 80 179 9.6 17.4 0.00 0.00 0.00 71 1005.4
20260505172506 79 234 10.4 17.4 0.00 0.00 0.00 71 1005.5
20260505172008 79 205 8.7 19.1 0.00 0.00 0.00 72 1005.4
20260505171527 78 217 9.6 19.1 0.00 0.00 0.00 72 1005.4
20260505171007 78 145 10.4 15.6 0.00 0.00 0.00 73 1005.4
20260505170504 77 181 8.7 15.6 0.00 0.00 0.00 74 1005.7
20260505170029 77 222 7.0 15.6 0.00 0.00 0.00 74 1005.7
20260505165505 77 202 7.8 15.6 0.00 0.00 0.00 74 1005.5
20260505165005 77 208 11.3 14.8 0.00 0.00 0.00 74 1005.3
20260505164509 77 360 9.6 13.9 0.00 0.00 0.00 74 1005.1
20260505164007 77 209 7.0 15.6 0.00 0.00 0.00 75 1005.9
20260505163510 77 206 8.7 15.6 0.00 0.00 0.00 74 1005.3
20260505163012 77 194 8.7 14.8 0.00 0.00 0.00 74 1005.5
20260505162503 77 180 8.7 18.2 0.00 0.00 0.00 74 1005.7
20260505162006 77 215 12.2 18.2 0.00 0.00 0.00 74 1006.0
20260505161509 77 207 9.6 16.5 0.00 0.00 0.00 74 1005.3
20260505161003 77 178 10.4 18.2 0.00 0.00 0.00 74 1005.4
20260505160506 77 219 11.3 18.2 0.00 0.00 0.00 73 1005.4
20260505153010 76 196 7.0 19.1 0.00 0.00 0.00 76 1005.1
20260505152503 76 164 13.0 19.1 0.00 0.00 0.00 76 1005.1
20260505152008 76 211 8.7 15.6 0.00 0.00 0.00 76 1005.4
20260505151512 76 219 8.7 13.9 0.00 0.00 0.00 76 1005.5
20260505151004 76 236 7.0 20.0 0.00 0.00 0.00 77 1005.4
20260505150504 75 219 10.4 20.0 0.00 0.00 0.00 77 1005.4
20260505140508 73 182 12.2 20.0 0.00 0.00 0.00 79 1005.2
20260505125008 72 208 5.2 9.6 0.00 0.00 0.00 82 1005.0
20260505124512 71 173 6.1 15.6 0.00 0.00 0.00 83 1004.9
20260505124004 71 158 7.0 15.6 0.00 0.00 0.00 83 1004.7
20260505123508 71 194 7.0 13.9 0.00 0.00 0.00 83 1004.7
20260505123014 71 193 5.2 9.6 0.00 0.00 0.00 83 1004.8
20260505122504 71 217 5.2 9.6 0.00 0.00 0.00 84 1004.9
20260505122009 70 205 5.2 13.9 0.00 0.00 0.00 84 1004.7
20260505121525 70 159 5.2 13.9 0.00 0.00 0.00 84 1004.7
20260505121006 70 174 4.3 10.4 0.00 0.00 0.00 84 1004.7
20260505120506 70 165 6.1 10.4 0.00 0.00 0.00 85 1004.7
20260505120011 70 192 4.3 9.6 0.00 0.00 0.00 84 1004.7
20260505115507 70 193 4.3 7.8 0.00 0.00 0.00 84 1004.7
20260505115007 70 174 3.5 11.3 0.00 0.00 0.00 84 1004.6
20260505114515 70 172 6.1 11.3 0.00 0.00 0.00 84 1004.6
20260505114008 70 360 5.2 11.3 0.00 0.00 0.00 84 1004.6
20260505113506 70 170 6.1 11.3 0.00 0.00 0.00 83 1004.6
20260505113014 71 185 5.2 9.6 0.00 0.00 0.00 83 1004.6
20260505112510 71 171 5.2 10.4 0.00 0.00 0.00 83 1004.5
20260505112007 71 360 7.0 10.4 0.00 0.00 0.00 83 1004.4
20260505111514 71 172 6.1 10.4 0.00 0.00 0.00 83 1004.3
20260505111007 71 216 6.1 13.0 0.00 0.00 0.00 83 1004.4
20260505110508 71 200 7.0 13.0 0.00 0.00 0.00 83 1004.3
20260505102007 71 200 6.1 10.4 0.00 0.00 0.00 83 1004.7
20260505101514 71 178 5.2 11.3 0.00 0.00 0.00 83 1004.6
20260505101010 71 228 6.1 13.9 0.00 0.00 0.00 83 1004.5
20260505100507 70 223 7.0 13.9 0.00 0.00 0.00 84 1004.4
20260505100021 70 173 5.2 11.3 0.00 0.00 0.00 84 1004.5
20260505095508 70 200 7.8 13.0 0.00 0.00 0.00 84 1004.5
20260505095006 70 212 7.0 13.0 0.00 0.00 0.00 84 1004.5
20260505094516 70 158 6.1 11.3 0.00 0.00 0.00 84 1004.4
20260505094008 70 180 7.0 12.2 0.00 0.00 0.00 84 1004.5
20260505093506 70 194 7.0 13.0 0.00 0.00 0.00 84 1004.6
20260505093024 70 169 7.0 13.0 0.00 0.00 0.00 84 1004.7
20260505092508 70 185 7.0 13.0 0.00 0.00 0.00 84 1004.8
20260505092008 70 182 7.0 12.2 0.00 0.00 0.00 84 1004.7
20260505091517 70 213 6.1 13.0 0.00 0.00 0.00 84 1005.0
20260505091006 70 207 8.7 13.0 0.00 0.00 0.00 84 1004.9
20260505090507 70 213 7.8 14.8 0.00 0.00 0.00 84 1004.8
20260505090014 70 219 7.0 14.8 0.00 0.00 0.00 84 1004.9
20260505085508 70 198 7.8 14.8 0.00 0.00 0.00 84 1004.9
20260505085011 70 171 5.2 13.9 0.00 0.00 0.00 83 1004.7
20260505084518 70 215 6.1 13.9 0.00 0.00 0.00 83 1004.8
20260505084008 70 163 7.0 12.2 0.00 0.00 0.00 83 1004.7
20260505083509 70 220 7.0 12.2 0.00 0.00 0.00 83 1004.7
20260505083018 70 196 6.1 11.3 0.00 0.00 0.00 83 1004.7
20260505082509 70 185 7.0 11.3 0.00 0.00 0.00 82 1004.8
20260505082008 70 195 6.1 12.2 0.00 0.00 0.00 82 1004.8
20260505081518 70 184 7.0 12.2 0.00 0.00 0.00 82 1004.9
20260505081008 70 194 6.1 12.2 0.00 0.00 0.00 82 1005.1
20260505080508 71 168 6.1 10.4 0.00 0.00 0.00 81 1005.1
20260505080018 71 159 7.0 12.2 0.00 0.00 0.00 81 1005.1
20260505075506 71 171 7.0 12.2 0.00 0.00 0.00 81 1005.2
20260505075003 71 195 6.1 13.9 0.00 0.00 0.00 81 1005.2
20260505074516 71 155 6.1 13.9 0.00 0.00 0.00 80 1005.3
20260505074004 71 199 7.0 12.2 0.00 0.00 0.00 80 1005.3
20260505073503 71 360 8.7 12.2 0.00 0.00 0.00 80 1005.3
20260505073016 71 187 6.1 12.2 0.00 0.00 0.00 79 1005.4
20260505072503 71 178 7.8 14.8 0.00 0.00 0.00 79 1005.5
20260505072002 71 207 6.1 14.8 0.00 0.00 0.00 79 1005.5
20260505071523 71 173 7.0 14.8 0.00 0.00 0.00 79 1005.6
20260505071002 71 189 7.0 14.8 0.00 0.00 0.00 79 1005.7
20260505070504 71 211 6.1 12.2 0.00 0.00 0.00 78 1005.7
20260505070016 72 151 7.0 12.2 0.00 0.00 0.00 78 1005.7
20260505065504 71 158 7.0 13.0 0.00 0.00 0.00 78 1005.8
20260505065007 72 155 5.2 13.0 0.00 0.00 0.00 78 1005.8
20260505064518 72 171 7.8 13.9 0.00 0.00 0.00 78 1005.9
20260505064003 71 196 7.0 14.8 0.00 0.00 0.00 78 1005.8
20260505063503 72 198 7.0 14.8 0.00 0.00 0.00 77 1005.9
20260505063029 72 175 7.8 16.5 0.00 0.00 0.00 77 1006.0
20260505062504 72 175 7.8 16.5 0.00 0.00 0.00 77 1005.9
20260505062003 71 198 7.8 16.5 0.00 0.00 0.00 77 1005.8
20260505061520 71 163 8.7 15.6 0.00 0.00 0.00 77 1005.8
20260505061004 71 183 8.7 15.6 0.00 0.00 0.00 77 1006.0
20260505060502 71 160 7.0 15.6 0.00 0.00 0.00 77 1005.9
20260505060017 71 198 7.0 13.0 0.00 0.00 0.00 77 1005.8
20260505055506 71 176 7.0 13.0 0.00 0.00 0.00 76 1005.8